Theta_e
310 310 310 310 310 310 311 312 313 314 315 317 318 318 320 321 322 311 305 311 313 325 320 305 303 304 305 303 308 309 302 299 301 298 300 304 305 306 310 310 312 315 314 319 331
309 309 309 309 309 310 310 310 311 313 314 315 317 317 318 321 311 306 315 320 325 324 307 302 301 303 299 301 303 300 298 301 305 303 302 304 305 305 307 309 311 315 321 327 328
307 307 308 308 309 309 309 309 309 311 313 314 315 316 317 317 303 304 320 321 324 321 311 304 303 303 299 300 300 300 294 299 303 308 308 304 304 306 306 306 309 312 317 323 326
307 307 307 307 308 308 309 309 308 309 311 313 314 315 317 310 290 307 321 319 321 317 308 299 300 297 296 295 299 297 300 300 302 308 308 303 306 305 306 308 312 316 322 324 324
306 306 307 307 307 308 308 308 308 308 309 312 313 314 309 301 301 310 320 315 309 314 304 296 297 297 294 295 298 298 298 300 301 305 307 307 305 305 305 309 313 318 322 324 325
306 306 306 307 307 307 307 307 307 308 308 311 312 313 303 294 309 309 311 309 307 309 306 298 295 300 296 295 296 297 300 299 300 300 304 304 304 305 308 310 315 319 320 322 325
306 305 306 306 307 307 307 307 307 308 308 309 312 307 300 297 309 307 310 305 306 306 301 302 300 299 296 294 297 298 296 297 296 298 299 302 298 300 307 309 313 317 319 320 323
306 305 306 305 306 306 306 307 307 307 308 308 310 305 294 305 308 311 309 304 307 309 308 307 301 302 298 300 298 294 293 288 293 298 299 298 290 298 304 308 308 314 316 319 321
305 305 305 305 305 306 306 306 307 308 307 308 301 300 290 308 304 307 309 303 306 308 307 310 305 300 298 293 290 290 283 285 289 296 297 296 292 298 300 305 306 309 314 316 318
306 305 304 305 305 305 306 306 306 305 303 304 302 293 295 294 303 307 309 306 303 303 302 301 297 291 290 288 281 283 282 285 286 291 294 293 293 296 297 300 303 305 309 313 315
306 305 304 304 305 305 301 296 288 289 293 289 291 290 295 299 302 303 307 305 303 298 291 295 287 284 286 289 288 288 286 284 287 291 292 290 291 296 298 295 296 297 300 304 309
306 304 304 304 304 304 297 291 292 293 286 292 293 294 296 299 292 298 306 299 297 290 291 290 284 287 290 293 291 288 286 285 287 291 290 286 286 290 292 296 297 296 296 298 299
306 304 303 303 303 297 292 294 300 298 283 288 292 291 292 296 291 293 301 300 294 290 289 284 287 290 289 290 290 288 284 283 284 287 287 283 283 286 290 292 296 298 298 297 298
305 304 302 303 293 292 291 298 298 297 278 279 286 289 292 294 288 298 301 298 295 290 288 287 292 288 286 286 289 285 289 287 287 285 280 283 277 281 285 287 290 294 295 298 300
305 304 302 300 290 290 294 299 296 291 261 279 285 295 292 287 288 291 301 297 291 289 290 285 288 288 286 285 288 285 291 290 289 285 284 280 278 280 282 283 285 288 292 295 298
304 303 303 296 292 296 299 299 294 274 263 271 286 285 284 286 287 292 293 297 295 291 290 287 292 291 291 290 290 290 288 287 286 284 277 279 279 278 282 284 286 288 289 291 294
304 303 298 296 286 296 296 292 275 267 274 272 280 284 283 282 283 285 287 289 287 282 283 287 287 289 290 286 289 286 283 277 275 273 272 277 278 282 283 286 287 289 289 290 290
304 302 299 295 294 293 292 280 265 266 264 278 281 282 280 282 282 283 285 285 289 283 280 279 279 287 289 287 284 284 282 276 271 271 273 279 276 280 286 288 289 289 290 291 291
303 295 290 292 294 292 280 271 266 268 277 279 281 276 275 279 280 279 283 281 287 288 278 279 280 287 288 289 289 284 281 284 278 275 273 276 279 283 285 287 288 288 289 290 291
295 289 287 298 293 284 271 271 269 279 280 281 274 278 272 275 276 274 277 281 281 285 290 282 277 284 287 289 289 287 288 280 280 267 269 274 276 277 282 284 285 286 287 288 290
291 280 291 295 290 275 265 265 268 280 281 279 277 275 276 274 276 276 277 281 283 283 287 285 281 281 285 284 283 285 283 284 282 277 272 270 274 281 283 284 284 286 288 287 291
280 272 293 293 275 273 265 268 282 281 279 277 280 279 278 278 275 276 275 279 283 284 280 284 284 279 279 284 288 287 284 285 279 276 277 276 276 284 284 285 285 287 289 289 291
282 285 295 290 267 262 268 274 279 278 280 275 277 280 281 279 273 278 279 284 284 284 281 282 280 274 275 281 285 282 285 287 284 281 276 273 276 285 285 284 285 287 288 289 290
277 275 281 285 275 268 264 267 271 281 279 281 277 278 278 277 280 276 279 283 285 286 288 285 278 274 269 275 279 277 282 285 285 281 279 278 281 283 284 284 286 286 287 288 289
276 269 270 275 277 274 276 277 275 274 277 281 279 278 274 269 277 278 280 281 284 286 285 281 269 275 277 278 279 279 279 279 281 281 280 281 280 284 286 286 287 287 287 287 288
275 274 279 277 277 270 273 273 276 276 277 273 275 279 276 271 275 276 279 279 280 283 283 284 275 277 276 278 277 276 279 280 280 277 278 279 279 286 288 290 288 289 289 289 291
281 281 278 278 278 267 264 270 277 279 280 281 279 279 278 280 280 280 281 282 281 280 280 279 276 273 267 275 275 265 274 279 278 279 279 276 281 286 285 287 288 289 289 289 290
Wind_Speed
13 13 12 12 14 13 15 16 16 17 17 17 15 15 15 15 10 2 6 9 4 7 6 7 9 7 3 1 1 2 4 4 6 7 5 4 6 2 2 5 2 5 3 0 17
13 13 13 13 13 15 16 17 17 16 16 17 15 16 15 14 3 6 12 16 10 2 2 5 4 11 4 1 1 3 4 8 5 5 5 7 5 9 5 4 2 2 3 8 17
13 14 14 14 14 14 15 17 19 18 16 15 16 14 15 7 5 6 3 6 13 5 2 6 4 5 4 1 3 3 6 4 4 3 4 6 3 5 8 3 7 10 7 14 14
14 13 14 14 15 15 15 16 17 19 18 17 16 15 14 0 7 2 2 5 4 5 5 4 8 5 5 4 3 3 5 4 3 3 4 6 5 5 5 7 3 7 11 14 17
14 15 16 16 16 16 15 15 17 17 17 16 15 15 5 5 8 4 3 3 2 4 4 5 5 10 8 4 3 4 4 5 3 4 4 6 2 2 7 4 2 9 13 15 15
12 14 15 17 18 15 16 16 16 17 17 16 16 13 4 11 5 4 4 3 3 3 1 4 5 4 4 7 7 4 3 2 4 5 4 6 2 2 3 5 4 10 13 13 15
13 14 15 17 17 16 15 15 16 15 17 17 17 4 9 13 6 6 5 3 2 3 3 4 2 4 5 3 5 2 3 4 4 4 4 4 0 7 1 4 7 8 9 10 12
12 13 15 17 16 15 16 16 16 17 16 16 15 2 9 7 7 5 2 5 5 3 2 3 5 4 3 2 2 6 4 4 3 6 4 5 5 10 6 7 8 7 6 9 10
11 11 13 16 16 15 16 16 17 17 15 14 4 4 7 5 4 8 7 4 4 4 4 2 4 4 2 6 2 3 5 5 4 8 3 4 5 10 7 9 9 8 8 7 7
10 9 11 14 15 15 16 16 12 9 6 2 3 4 6 4 4 2 6 5 5 4 2 4 2 3 1 5 14 8 6 4 7 5 4 5 8 7 4 7 11 8 7 9 10
11 8 10 12 14 15 10 4 5 2 2 5 2 5 3 5 2 4 3 5 4 4 7 4 4 10 7 5 4 6 5 5 3 1 4 5 5 14 3 3 7 7 7 10 12
10 7 9 11 13 13 3 3 2 1 6 10 11 8 12 3 4 6 7 8 7 6 5 4 10 6 8 4 3 4 4 3 1 1 3 1 8 12 5 7 8 10 9 10 6
8 7 7 9 13 4 2 2 2 6 4 6 7 5 8 5 3 7 9 7 5 8 9 6 1 10 7 7 7 4 6 4 3 1 3 3 7 8 7 5 6 8 8 6 12
9 7 4 9 4 3 1 8 2 5 1 5 5 8 6 6 6 7 6 7 5 14 10 5 5 6 6 7 8 8 8 6 5 3 3 3 9 6 8 7 5 9 8 14 14
7 5 2 5 2 1 7 7 1 3 2 5 3 2 2 8 1 7 4 4 6 5 8 6 8 8 3 5 7 5 6 8 4 4 4 1 1 7 2 6 8 10 13 13 15
5 6 8 2 1 2 5 3 1 3 5 7 7 5 2 4 5 3 4 4 3 3 2 6 3 6 9 5 7 9 8 7 5 3 4 7 6 5 6 6 4 5 8 11 9
7 7 6 3 1 0 2 1 0 2 5 8 3 4 3 6 5 2 3 9 6 11 9 5 4 3 4 7 2 3 7 3 2 0 8 2 5 12 6 5 5 7 8 7 6
8 7 4 1 2 1 2 3 6 1 6 4 4 5 7 1 3 2 2 6 10 3 4 5 6 8 5 5 8 8 8 7 8 7 4 1 9 7 5 7 8 8 8 7 6
12 2 3 4 1 2 4 3 6 5 4 7 3 6 6 9 7 2 3 3 3 4 4 5 2 3 4 5 9 6 7 6 6 3 3 5 7 8 4 8 10 7 3 7 7
4 3 3 4 2 5 6 2 2 2 3 3 3 2 2 5 6 4 9 4 8 7 5 1 3 2 4 3 2 8 7 3 2 5 4 5 4 5 4 7 7 9 9 8 7
4 4 3 1 3 6 3 6 5 4 2 4 3 2 1 2 1 7 7 3 2 5 2 1 2 1 6 6 9 4 5 2 5 5 6 2 6 7 4 3 4 5 5 6 6
4 5 2 3 5 3 0 4 3 4 3 3 2 4 1 1 4 4 2 4 5 3 3 2 1 3 3 1 1 1 5 5 6 5 2 2 6 4 4 5 1 3 5 5 4
4 2 1 3 2 3 5 4 3 4 3 5 5 4 4 1 4 4 3 6 1 4 1 4 2 3 4 5 5 1 3 3 3 3 7 6 7 1 3 2 1 5 4 4 4
4 4 3 3 2 5 1 4 5 2 0 1 1 3 4 5 4 3 2 3 2 2 3 3 3 2 5 3 0 3 4 2 9 4 7 8 11 5 8 8 9 5 5 4 4
4 2 3 1 1 2 0 2 3 4 1 2 2 2 2 3 3 2 3 4 2 3 2 3 4 2 0 1 3 1 2 3 3 3 6 4 6 1 7 8 8 7 6 5 6
4 5 2 3 2 3 3 2 1 5 1 4 5 2 1 2 4 2 3 1 2 4 2 0 2 2 1 2 5 3 6 7 8 4 6 5 16 9 11 8 8 8 8 10 14
0 2 5 2 1 4 4 4 3 2 2 2 1 1 2 3 4 5 4 5 2 1 2 2 2 3 3 6 4 7 8 8 4 5 6 7 8 3 4 6 6 7 7 8 9
Wind_Direction
350 344 341 336 329 332 329 331 336 339 337 326 329 321 323 319 313 298 257 227 209 346 2 338 336 324 283 308 55 131 77 183 206 161 217 156 173 149 135 121 214 189 143 314 138
358 348 342 334 336 333 327 322 325 331 335 330 324 330 325 324 279 245 242 241 244 80 329 107 297 322 305 215 333 114 145 215 207 188 189 183 180 159 143 128 225 189 67 125 148
354 346 343 340 328 320 324 323 320 318 325 328 325 327 337 330 302 251 18 282 224 137 164 132 94 314 284 232 190 197 199 207 237 206 143 171 214 178 128 197 207 198 153 155 162
345 342 338 332 327 320 313 313 316 314 315 324 318 324 332 21 234 358 25 78 102 133 149 166 134 85 269 235 161 222 242 184 193 171 137 162 135 187 198 203 166 186 153 164 174
339 334 329 328 323 321 318 310 311 310 306 308 317 316 334 237 247 321 328 351 115 124 161 196 172 145 230 198 177 193 245 193 192 176 147 130 154 223 235 243 56 136 153 176 184
329 326 327 329 320 315 312 315 309 303 302 305 307 320 258 256 273 6 339 311 221 134 197 201 206 191 213 209 176 229 215 291 217 199 173 143 137 103 255 157 133 157 179 181 190
321 323 325 328 319 311 310 308 304 302 304 296 299 303 259 244 264 325 352 274 248 176 182 211 241 206 141 248 175 162 155 323 236 220 212 136 169 231 186 167 184 195 189 189 198
318 319 328 326 326 322 315 308 304 298 297 296 297 331 257 263 242 260 198 282 244 242 199 211 209 248 186 248 30 147 115 192 257 154 245 154 241 248 180 163 214 213 207 204 199
309 314 327 327 323 322 315 304 301 288 289 295 300 241 263 288 203 245 180 227 224 208 220 186 164 205 161 149 108 331 187 198 281 211 132 158 230 248 184 187 211 212 210 213 225
297 309 320 329 326 324 319 311 295 294 305 229 216 262 284 232 254 232 181 174 214 159 167 158 132 174 126 173 202 171 168 201 197 218 197 172 233 248 206 196 212 216 211 211 221
290 301 312 326 327 327 339 343 11 353 291 243 193 253 318 306 251 254 185 145 191 158 167 197 146 206 190 186 131 139 141 164 228 122 151 219 258 259 222 234 243 231 230 228 222
286 293 309 323 327 332 32 299 89 297 297 238 259 270 296 235 314 283 159 177 187 161 133 117 225 182 164 182 129 130 139 174 179 78 143 87 261 262 226 234 214 225 218 238 251
283 285 303 319 329 36 296 302 39 185 251 246 197 245 239 208 228 266 181 201 195 148 178 170 225 171 159 163 174 156 150 155 140 102 67 345 277 256 256 214 239 229 236 219 225
291 260 311 332 43 306 359 344 358 103 250 280 203 240 194 151 268 232 218 212 183 201 155 207 188 157 161 180 153 207 158 142 128 103 217 37 279 278 261 255 234 246 224 232 236
287 217 122 81 209 43 308 313 208 50 21 271 268 317 251 174 156 234 185 204 181 190 148 198 155 152 169 187 145 200 165 154 120 99 58 228 295 269 318 277 264 237 241 238 232
206 186 133 79 12 196 312 330 29 45 258 334 330 338 141 235 251 294 177 160 218 190 39 166 163 168 182 167 154 144 99 63 66 124 246 179 171 210 197 211 256 238 238 247 256
193 171 120 130 270 325 348 18 5 104 336 309 338 308 274 210 230 262 244 189 188 201 176 181 171 158 131 97 87 147 140 97 87 139 230 324 197 255 256 255 234 267 278 282 290
150 144 72 61 135 169 65 76 66 257 249 308 291 7 29 262 268 136 235 219 226 174 154 154 165 176 182 168 175 181 164 158 182 192 204 47 231 242 245 287 265 238 251 299 296
137 81 62 332 18 46 52 36 197 198 255 307 346 53 3 359 22 55 244 21 313 185 154 130 235 134 175 151 143 203 201 146 101 50 69 217 291 291 268 277 302 312 291 276 292
106 79 11 349 42 64 71 301 242 274 317 299 70 6 85 358 23 23 13 8 340 3 320 78 142 207 181 106 34 178 151 106 42 134 226 257 275 230 279 294 335 336 340 332 343
70 70 290 16 59 46 122 234 285 264 266 350 338 36 46 166 86 3 353 328 45 310 267 226 127 351 122 208 168 146 174 144 121 153 170 206 260 215 204 10 16 331 334 345 350
98 62 305 32 47 66 84 211 287 306 19 345 332 339 236 165 72 39 334 242 298 323 25 4 308 136 168 99 80 248 162 179 191 197 213 126 264 204 195 96 99 17 10 23 11
81 86 16 94 100 307 310 296 261 346 21 23 350 18 354 79 92 220 219 281 297 337 8 307 59 92 20 6 13 100 180 218 122 92 205 161 243 27 178 240 169 80 38 24 17
89 91 342 49 101 124 54 322 323 21 347 122 221 335 7 7 28 210 269 316 116 288 5 64 65 85 162 124 172 334 1 352 212 196 231 225 251 298 317 317 301 319 297 317 332
39 240 177 139 238 83 326 316 321 338 68 52 77 326 133 25 19 35 349 334 13 243 355 66 105 90 250 197 113 97 336 350 246 260 218 268 281 291 297 296 305 302 285 280 284
120 130 85 143 188 94 342 286 294 305 77 328 112 173 270 150 189 282 2 355 15 360 127 97 146 69 224 282 208 230 226 240 253 226 257 258 278 226 248 276 279 281 302 307 314
167 63 103 26 125 72 237 238 267 334 266 224 270 32 223 242 205 241 239 273 264 6 7 81 121 95 266 332 103 335 230 203 209 203 189 212 248 32 29 318 302 297 290 286 292